This demonstration page uses our WeatherBlox Daily Observations layout. Learn more.

Left ArrowRight Arrow

Hourly Observations for January 12, 2022

Temp ( °F °C ) Dew Point ( °F °C ) Humidity (%) Winds ( mph kmh ) Pressure ( in mb ) Visibility ( mi km ) Precip ( " mm )
12:52 am 00:52 Mostly Cloudy 29 -1.7 21 -6.1 72 72 Calm 30.11 1020 10 16 0.00 0.00
1:52 am 01:52 Mostly Cloudy 29 -1.7 22 -5.6 75 75 SE 6 9 30.10 1019 10 16 0.00 0.00
2:52 am 02:52 Partly Cloudy 27 -2.8 21 -6.1 78 78 SSE 8 13 30.10 1019 10 16 0.00 0.00
3:52 am 03:52 Partly Cloudy 26 -3.3 20 -6.7 78 78 SSE 8 13 30.08 1019 10 16 0.00 0.00
4:52 am 04:52 Mostly Clear 29 -1.7 22 -5.6 75 75 SE 9 15 30.05 1018 10 16 0.00 0.00
5:52 am 05:52 Mostly Cloudy 32 0 22 -5.6 66 66 SSE 8 13 30.02 1017 10 16 0.00 0.00
6:52 am 06:52 Mostly Cloudy 31 -0.6 21 -6.1 67 67 SE 7 11 30.04 1017 10 16 0.00 0.00
7:52 am 07:52 Mostly Cloudy 34 1.1 21 -6.1 59 59 WNW 5 7 30.05 1018 10 16 0.00 0.00
8:52 am 08:52 Mostly Cloudy 35 1.7 22 -5.6 59 59 Calm 30.06 1018 10 16 0.00 0.00
9:52 am 09:52 Mostly Cloudy 39 3.9 23 -5 53 53 NW 13 20 30.08 1019 10 16 0.00 0.00
10:52 am 10:52 Mostly Cloudy 46 7.8 23 -5 40 40 W 6 9 30.07 1018 10 16 0.00 0.00
11:52 am 11:52 Mostly Cloudy 45 7.2 22 -5.6 40 40 W 9 15 30.06 1018 10 16 0.00 0.00
12:52 pm 12:52 Mostly Cloudy 51 10.6 24 -4.4 35 35 WNW 9 15 30.04 1017 10 16 0.00 0.00
1:52 pm 13:52 Mostly Cloudy 55 12.8 25 -3.9 31 31 WNW 13 20 30.01 1016 10 16 0.00 0.00
2:52 pm 14:52 Mostly Cloudy 56 13.3 27 -2.8 33 33 WNW 10 17 30.00 1016 10 16 0.00 0.00
3:52 pm 15:52 Mostly Cloudy 57 13.9 27 -2.8 32 32 WNW 10 17 30.02 1017 10 16 0.00 0.00
4:52 pm 16:52 Mostly Cloudy 50 10 26 -3.3 39 39 NW 6 9 30.03 1017 10 16 0.00 0.00
5:52 pm 17:52 Cloudy 49 9.4 26 -3.3 41 41 Calm 30.03 1017 10 16 0.00 0.00
6:52 pm 18:52 Cloudy 40 4.4 25 -3.9 55 55 Calm 30.04 1017 10 16 0.00 0.00
7:52 pm 19:52 Cloudy 38 3.3 26 -3.3 62 62 SE 3 6 30.04 1017 10 16 0.00 0.00
8:52 pm 20:52 Cloudy 36 2.2 25 -3.9 64 64 Calm 30.04 1017 10 16 0.00 0.00
9:52 pm 21:52 Mostly Cloudy 34 1.1 25 -3.9 70 70 SE 3 6 30.02 1017 10 16 0.00 0.00
10:52 pm 22:52 Cloudy 36 2.2 27 -2.8 70 70 SSE 7 11 30.00 1016 10 16 0.00 0.00
11:52 pm 23:52 Cloudy 38 3.3 28 -2.2 68 68 SE 6 9 29.99 1016 10 16 0.00 0.00

Powered by AerisWeather